This is the latest recevied weather packets stored in our database for station/object IW7DVM-13. If no packets are shown the sender has not sent any weather packets the latest 10 day(s).
| Time | Temp. | Humidity | Pressure | Rain* | Wind** | Luminosity | Snow |
|---|---|---|---|---|---|---|---|
| 1787651103 | 31.11° C | 58% | 1009 hPa | 0 mm | - | - | - |
| 1787650803 | 31.67° C | 58% | 1009.2 hPa | 0 mm | - | - | - |
| 1787650503 | 31.67° C | 59% | 1009.2 hPa | 0 mm | - | - | - |
| 1787650203 | 31.11° C | 59% | 1009.2 hPa | 0 mm | - | - | - |
| 1787649903 | 31.11° C | 59% | 1009.3 hPa | 0 mm | - | - | - |
| 1787649603 | 30.56° C | 60% | 1009.3 hPa | 0 mm | - | - | - |
| 1787649303 | 30.56° C | 60% | 1009.2 hPa | 0 mm | - | - | - |
| 1787649003 | 30° C | 61% | 1009.3 hPa | 0 mm | - | - | - |
| 1787648703 | 30° C | 61% | 1009.3 hPa | 0 mm | - | - | - |
| 1787648403 | 30° C | 61% | 1009.2 hPa | 0 mm | - | - | - |
| 1787648103 | 30.56° C | 61% | 1009.3 hPa | 0 mm | - | - | - |
| 1787647803 | 30° C | 61% | 1009.4 hPa | 0 mm | - | - | - |
| 1787647503 | 30° C | 60% | 1009.3 hPa | 0 mm | - | - | - |
| 1787647203 | 30.56° C | 60% | 1009.4 hPa | 0 mm | - | - | - |
| 1787646903 | 30.56° C | 60% | 1009.3 hPa | 0 mm | - | - | - |
| 1787646603 | 31.11° C | 60% | 1009.4 hPa | 0 mm | - | - | - |
| 1787646303 | 30.56° C | 60% | 1009.4 hPa | 0 mm | - | - | - |
| 1787646003 | 31.11° C | 60% | 1009.4 hPa | 0 mm | - | - | - |
| 1787645703 | 30.56° C | 61% | 1009.5 hPa | 0 mm | - | - | - |
| 1787645403 | 30.56° C | 61% | 1009.4 hPa | 0 mm | - | - | - |
| 1787645103 | 30.56° C | 61% | 1009.4 hPa | 0 mm | - | - | - |
| 1787644803 | 30.56° C | 61% | 1009.4 hPa | 0 mm | - | - | - |
| 1787644503 | 30.56° C | 61% | 1009.3 hPa | 0 mm | - | - | - |
| 1787644203 | 30.56° C | 61% | 1009.4 hPa | 0 mm | - | - | - |
| 1787643903 | 30° C | 61% | 1009.4 hPa | 0 mm | - | - | - |
* Rain latest hour (hover to see other rain measurements)
** Current wind speed in m/s (hover to see current wind gust speed)